Location: ??
(35.3149°N, 139.6204°E)
Time: 10:50:24
(UTC+00:00)

Cosmos 1953 - Pass Details

Date: 03 August 2024
Orbit: 505 x 524 km, 82.5° (Epoch: 09 September)

Event Time Altitude Azimuth Distance (km) Brightness Sun altitude
Rises 18:58:59 0° 169° (S) 2,591 5.6 -10.7°
Reaches altitude 10° 19:01:11 10° 162° (SSE) 1,712 4.7 -10.3°
Maximum altitude 19:04:41 39° 92° (E) 775 3.6 -9.6°
Drops below altitude 10° 19:08:14 10° 23° (NNE) 1,733 5.7 -9.0°
Sets 19:10:27 0° 16° (NNE) 2,627 6.5 -8.6°
